Wind_Speed
8 8 8 7 7 7 8 8 7 7 7 7 7 7 7 7 6 6 5 4 4 4 3 3 3 3 3 3 3 3 3 3 3 3 4 4 4 4 4 4 4 4 4
8 8 8 8 8 8 9 9 9 9 9 8 8 8 7 8 7 7 6 5 5 5 5 4 4 4 3 3 4 4 4 4 4 4 4 4 4 4 4 5 4 4 5
9 9 9 9 9 10 10 10 10 10 10 10 9 9 9 8 8 7 7 7 7 6 5 5 5 5 4 4 4 4 4 4 5 5 5 5 5 5 5 5 5 5 5
10 10 10 10 10 10 11 11 11 11 11 11 10 10 10 9 9 8 8 8 8 8 7 6 6 6 5 5 5 5 5 5 5 6 6 6 5 5 6 6 6 6 6
10 11 10 11 11 11 12 12 12 12 12 12 11 11 12 11 10 10 9 10 10 9 8 8 7 7 6 6 6 6 6 6 7 6 6 6 6 6 6 6 7 7 7
11 11 11 12 12 12 12 13 13 13 13 12 12 12 12 12 12 11 10 10 10 10 10 9 9 8 8 7 7 7 7 8 8 7 7 7 7 8 7 7 7 7 8
13 13 13 13 13 13 13 13 14 14 14 13 13 13 13 12 12 12 12 12 11 11 10 10 10 10 9 9 9 9 9 9 8 8 8 8 8 8 8 9 9 9 9
14 13 14 14 14 15 14 14 14 15 15 14 14 13 14 13 13 13 13 12 12 11 11 11 10 11 11 10 10 10 10 10 10 10 9 9 9 9 9 9 9 10 10
15 14 15 15 15 16 15 15 15 15 15 15 15 15 14 14 14 14 13 13 12 12 12 11 11 11 11 11 12 11 11 11 11 11 10 10 9 9 10 10 10 10 11
17 16 16 16 16 17 16 16 16 16 16 17 16 16 15 15 15 14 14 13 13 13 13 12 12 12 12 12 12 12 11 12 12 12 11 12 12 11 11 11 11 12 12
18 18 18 18 17 17 17 17 17 18 17 17 17 17 16 15 15 14 14 14 13 13 13 13 12 12 12 12 12 12 12 12 12 12 12 13 13 13 13 13 13 13 13
20 20 19 19 19 19 19 18 18 18 18 18 17 17 17 16 16 15 15 15 14 13 13 12 12 12 13 13 13 13 13 13 13 13 13 14 13 13 13 14 14 14 14
20 21 20 19 19 19 18 19 19 18 18 18 18 17 17 17 16 16 16 15 15 14 13 13 12 13 13 14 14 13 13 14 14 14 14 14 14 14 14 14 15 15 14
21 21 21 20 19 19 18 19 18 18 18 19 19 18 18 17 17 16 16 15 15 15 14 13 13 13 13 13 14 14 15 14 14 15 15 15 15 15 15 16 16 16 16
21 22 22 21 20 20 20 19 18 19 20 20 18 18 18 18 17 17 16 15 15 15 15 15 14 14 14 14 14 15 16 16 15 16 16 17 17 17 18 18 18 18 18
22 21 21 21 22 21 21 20 20 19 19 19 19 19 18 18 18 18 17 17 16 16 15 15 16 15 15 15 15 16 16 17 17 17 18 18 19 19 20 21 21 21 21
22 22 21 21 22 21 21 21 20 20 19 19 19 18 18 18 18 18 17 17 17 16 16 16 17 18 17 17 16 17 16 17 17 18 19 19 20 21 21 22 22 22 22
22 22 22 21 21 21 21 21 20 20 19 19 19 19 18 19 18 17 17 17 17 17 17 17 18 18 18 18 17 17 17 18 19 20 20 20 20 21 21 21 22 22 22
21 22 21 20 21 21 21 21 20 20 19 19 19 19 19 19 18 18 18 17 17 18 17 19 19 18 18 18 18 18 18 19 20 21 20 20 21 21 21 21 21 21 22
21 21 21 21 20 20 20 19 18 19 19 18 18 18 19 18 18 19 18 18 18 19 19 20 19 19 19 19 19 19 19 20 21 21 21 21 21 20 20 20 20 21 22
19 19 20 19 19 18 18 17 17 18 18 18 17 18 18 18 18 19 19 18 19 19 19 19 20 19 19 19 20 20 20 20 21 21 21 20 20 19 19 19 20 21 22
18 18 18 18 18 17 17 16 17 18 18 17 17 18 17 18 18 19 19 19 19 20 20 20 20 20 20 20 21 21 20 21 20 20 20 20 19 18 19 18 18 19 19
17 16 16 17 16 16 16 16 17 17 17 16 17 18 17 17 18 18 19 19 20 21 20 19 20 20 20 21 21 21 20 20 21 20 19 19 19 20 19 19 19 19 19
16 16 16 15 15 15 16 16 16 16 16 16 17 17 17 17 18 18 19 19 20 20 20 20 20 21 21 21 21 21 21 21 21 20 19 19 19 20 19 20 19 19 19
16 15 15 15 15 16 16 16 16 16 16 16 17 17 17 18 18 18 19 19 20 19 20 20 20 21 21 21 21 22 22 21 21 21 19 19 19 19 19 19 19 18 19
16 15 15 15 16 16 16 16 16 16 15 16 17 16 16 17 17 18 18 18 18 19 19 19 20 21 21 22 21 22 22 22 21 21 20 20 20 19 18 19 19 19 20
Wind_Direction
289 284 281 280 279 277 274 272 273 274 271 264 260 261 258 256 257 261 263 269 276 281 285 284 288 292 294 295 297 304 306 303 305 300 295 294 287 283 281 277 268 256 249
288 284 280 280 279 277 276 273 272 272 272 267 269 267 262 260 259 263 266 265 272 276 279 278 280 287 291 291 292 296 302 300 303 300 290 287 290 280 271 271 266 258 252
287 286 283 280 278 278 276 275 271 269 269 269 269 268 266 262 262 266 269 266 270 274 276 278 278 279 282 286 290 292 297 297 301 300 292 287 288 286 273 266 262 258 254
284 284 282 278 276 279 278 274 271 270 268 266 263 266 267 267 269 271 272 272 272 273 271 273 277 277 277 280 282 284 287 289 291 291 289 289 288 285 278 263 259 257 256
283 283 282 279 277 277 276 274 270 270 269 263 262 264 267 270 274 274 274 275 275 275 272 272 273 274 274 277 279 280 283 285 287 284 284 287 284 283 282 267 261 260 260
280 280 282 281 280 276 273 271 269 270 269 264 264 266 267 270 273 273 275 276 276 275 273 273 274 274 275 276 277 277 280 284 286 286 281 282 280 280 279 274 267 264 263
280 279 281 280 279 276 276 272 271 270 268 265 265 266 269 270 272 273 274 275 275 274 272 272 272 274 275 277 276 277 279 281 284 282 279 279 275 279 275 272 269 264 263
284 281 280 280 279 278 278 275 271 270 268 266 266 267 270 270 271 272 271 274 274 273 273 272 272 274 274 276 276 277 278 279 280 279 277 277 272 273 273 271 270 265 262
287 284 281 281 280 278 277 276 272 270 270 268 268 269 270 269 271 272 271 273 272 271 273 273 273 276 274 274 274 275 275 274 276 276 278 277 276 276 276 272 271 270 265
288 285 281 280 279 279 277 275 271 269 269 269 268 268 268 269 270 270 271 273 272 271 271 272 274 274 273 275 275 274 274 274 276 277 278 276 276 276 276 277 276 273 268
285 285 283 281 278 277 276 274 271 269 268 269 268 268 265 267 269 271 272 273 273 270 269 271 275 274 273 274 277 276 274 275 277 278 277 276 275 274 276 277 276 274 271
285 283 281 282 281 279 274 272 271 269 268 268 269 269 265 265 268 269 272 270 273 271 272 274 276 276 277 276 279 279 278 277 278 279 277 276 275 275 274 275 275 275 274
286 284 279 280 280 281 274 274 272 269 270 269 270 269 266 264 267 267 270 271 274 275 275 275 277 278 281 280 280 279 282 282 279 279 278 274 274 273 272 272 273 274 273
283 284 282 279 279 280 278 278 273 270 270 271 268 268 268 267 267 266 267 270 273 274 275 274 274 276 279 279 280 278 282 284 281 283 279 274 272 273 273 272 272 272 270
284 282 284 278 276 277 279 279 273 273 270 271 270 267 267 268 267 265 267 269 272 275 276 275 277 276 276 278 281 283 281 281 280 282 280 276 274 273 273 273 273 274 271
285 284 282 281 276 276 279 277 275 273 273 272 271 267 266 266 267 266 265 269 272 273 275 276 276 278 278 278 281 284 285 284 282 280 281 277 275 274 274 274 273 272 271
284 284 282 281 279 277 279 276 273 271 269 270 271 268 266 265 265 266 268 270 272 273 275 274 276 279 280 281 283 286 287 285 285 284 283 280 278 276 275 274 272 270 269
283 283 281 278 277 277 276 276 272 268 266 267 268 266 267 263 263 267 269 271 271 272 274 273 277 280 280 282 284 286 287 285 285 287 285 282 281 280 276 275 272 269 269
281 281 281 276 275 275 275 273 270 265 266 267 268 265 265 264 264 267 269 272 271 273 275 276 278 280 279 280 284 286 288 287 286 289 287 285 282 281 279 277 275 271 269
280 279 278 277 275 275 276 271 268 264 265 266 265 265 264 266 265 267 270 272 273 275 277 278 278 278 278 280 283 285 288 289 289 289 287 285 284 283 281 279 277 273 272
279 278 277 276 275 273 274 273 268 263 263 264 266 265 265 267 268 268 270 273 277 278 278 274 274 276 277 280 282 285 288 291 291 289 290 286 283 282 282 282 281 277 275
280 279 278 275 275 273 274 275 270 264 262 261 264 266 264 268 270 270 270 271 275 276 278 276 276 278 278 279 282 285 289 291 293 290 288 287 284 284 285 284 284 282 279
280 282 280 276 274 276 276 275 271 261 260 264 264 267 266 269 272 273 273 273 274 275 277 279 279 278 280 281 282 286 291 291 291 288 286 287 285 284 283 284 285 284 282
280 281 279 275 273 273 274 272 270 263 263 265 266 267 267 269 273 275 275 276 276 277 277 279 282 280 280 282 283 286 289 289 289 287 285 285 284 283 283 285 285 284 282
281 280 275 273 274 273 275 275 272 267 266 265 266 267 266 268 272 275 277 277 276 277 278 278 280 282 282 283 284 285 288 289 288 286 287 287 286 287 287 285 286 285 284
281 280 276 274 276 278 276 276 273 267 267 267 266 267 269 272 276 279 280 280 278 278 278 280 281 281 284 286 285 286 286 286 287 287 289 289 287 286 286 287 287 286 286
Height
5891 5891 5890 5890 5890 5890 5890 5890 5890 5890 5890 5889 5889 5889 5888 5888 5888 5887 5887 5887 5887 5886 5886 5886 5886 5885 5885 5885 5885 5885 5885 5885 5885 5885 5885 5885 5884 5884 5885 5885 5885 5886 5887
5890 5889 5889 5889 5889 5889 5889 5889 5889 5889 5888 5888 5888 5888 5887 5887 5887 5887 5887 5886 5886 5886 5885 5885 5885 5885 5884 5884 5884 5884 5884 5884 5884 5884 5884 5884 5884 5884 5884 5884 5885 5885 5886
5889 5888 5888 5888 5888 5888 5888 5888 5887 5887 5887 5887 5887 5887 5886 5886 5886 5886 5886 5886 5885 5885 5885 5884 5884 5884 5884 5883 5883 5883 5884 5884 5883 5883 5883 5884 5884 5883 5883 5884 5884 5884 5885
5887 5887 5887 5887 5887 5886 5886 5886 5886 5886 5886 5886 5885 5885 5885 5885 5885 5885 5884 5884 5884 5884 5884 5883 5883 5883 5883 5883 5883 5882 5883 5883 5882 5882 5882 5882 5883 5882 5882 5882 5883 5883 5884
5886 5885 5885 5885 5885 5885 5884 5884 5884 5884 5884 5884 5883 5884 5884 5883 5883 5883 5883 5883 5883 5882 5882 5882 5882 5882 5882 5881 5881 5881 5881 5881 5881 5881 5881 5881 5881 5881 5881 5881 5882 5882 5883
5884 5883 5883 5883 5883 5883 5882 5882 5882 5882 5882 5882 5882 5882 5882 5882 5881 5881 5881 5881 5881 5881 5881 5881 5881 5881 5880 5880 5880 5880 5880 5880 5880 5880 5880 5880 5880 5880 5880 5880 5880 5881 5881
5882 5881 5881 5881 5880 5880 5880 5880 5880 5880 5880 5879 5879 5880 5880 5880 5879 5879 5879 5879 5879 5879 5879 5879 5879 5879 5879 5879 5879 5879 5878 5878 5878 5878 5878 5878 5878 5878 5879 5879 5879 5879 5880
5879 5879 5878 5878 5878 5878 5877 5877 5877 5877 5877 5877 5877 5877 5877 5877 5877 5877 5877 5877 5877 5877 5877 5877 5877 5877 5877 5877 5877 5877 5877 5876 5877 5877 5876 5876 5876 5876 5877 5877 5877 5878 5878
5875 5876 5875 5875 5875 5874 5874 5874 5874 5874 5874 5874 5874 5875 5875 5875 5875 5875 5875 5875 5875 5875 5875 5875 5875 5875 5875 5875 5875 5875 5875 5875 5874 5874 5874 5875 5875 5875 5875 5875 5875 5876 5876
5872 5872 5872 5872 5871 5871 5871 5871 5871 5871 5871 5871 5871 5872 5872 5872 5872 5872 5873 5873 5872 5872 5873 5873 5873 5873 5873 5873 5873 5873 5873 5873 5872 5872 5873 5873 5873 5873 5873 5873 5873 5874 5874
5869 5868 5868 5868 5868 5868 5868 5868 5868 5868 5868 5868 5868 5868 5869 5869 5869 5870 5870 5870 5870 5870 5870 5870 5870 5870 5871 5871 5870 5870 5870 5870 5870 5870 5870 5870 5870 5870 5870 5871 5871 5871 5871
5866 5865 5864 5864 5864 5864 5864 5864 5864 5864 5865 5865 5865 5865 5866 5866 5866 5867 5867 5867 5867 5867 5867 5867 5867 5868 5868 5868 5868 5868 5868 5868 5868 5868 5868 5867 5867 5868 5868 5868 5868 5868 5869
5862 5861 5860 5860 5860 5859 5859 5860 5860 5860 5861 5861 5862 5862 5862 5863 5863 5864 5864 5864 5864 5864 5864 5865 5865 5865 5865 5865 5865 5865 5865 5865 5865 5865 5865 5864 5864 5864 5864 5865 5865 5865 5866
5858 5858 5857 5856 5856 5855 5855 5855 5855 5856 5857 5857 5858 5858 5858 5859 5859 5860 5860 5861 5861 5861 5861 5862 5862 5862 5862 5862 5862 5862 5862 5862 5861 5861 5861 5861 5861 5861 5861 5861 5862 5862 5862
5854 5854 5853 5852 5851 5852 5852 5852 5852 5852 5852 5853 5854 5854 5855 5855 5856 5856 5857 5857 5858 5858 5858 5858 5858 5859 5859 5859 5859 5859 5858 5858 5858 5858 5857 5857 5857 5857 5857 5857 5857 5858 5858
5850 5850 5848 5847 5847 5847 5848 5848 5848 5848 5848 5849 5850 5850 5851 5851 5852 5853 5853 5854 5854 5854 5855 5855 5855 5855 5855 5856 5856 5855 5855 5854 5854 5853 5853 5853 5853 5853 5852 5852 5853 5853 5853
5845 5845 5845 5844 5843 5843 5843 5844 5844 5844 5845 5845 5846 5846 5847 5848 5848 5849 5850 5850 5851 5851 5851 5851 5851 5852 5852 5852 5852 5851 5851 5850 5849 5849 5849 5848 5848 5847 5847 5847 5847 5847 5848
5840 5840 5840 5839 5839 5838 5839 5839 5840 5840 5840 5841 5842 5842 5843 5844 5845 5846 5846 5847 5847 5847 5847 5847 5848 5848 5848 5848 5848 5847 5847 5846 5845 5844 5843 5843 5842 5842 5841 5841 5841 5841 5841
5836 5835 5835 5835 5835 5834 5834 5834 5835 5836 5836 5837 5838 5838 5839 5840 5841 5842 5843 5843 5843 5843 5843 5843 5844 5844 5844 5844 5843 5843 5843 5842 5840 5839 5838 5837 5837 5836 5835 5835 5835 5835 5835
5831 5831 5830 5831 5830 5830 5830 5830 5831 5832 5832 5833 5834 5835 5835 5836 5837 5838 5839 5839 5839 5839 5839 5838 5839 5839 5840 5839 5839 5838 5838 5837 5835 5834 5833 5832 5831 5830 5830 5829 5829 5829 5829
5826 5826 5826 5826 5826 5826 5826 5826 5827 5828 5828 5829 5830 5831 5832 5833 5833 5834 5834 5835 5835 5835 5834 5833 5834 5835 5835 5835 5834 5834 5833 5832 5830 5829 5828 5827 5826 5825 5824 5824 5824 5823 5823
5822 5822 5822 5822 5822 5822 5822 5823 5823 5823 5824 5826 5827 5827 5828 5828 5829 5829 5830 5831 5831 5831 5830 5830 5830 5830 5829 5830 5829 5828 5828 5827 5825 5824 5823 5822 5821 5820 5820 5819 5818 5818 5818
5819 5818 5818 5818 5818 5819 5819 5819 5820 5819 5820 5821 5823 5824 5824 5825 5825 5825 5826 5826 5826 5826 5826 5826 5826 5825 5825 5825 5824 5823 5822 5822 5821 5820 5818 5817 5816 5815 5815 5814 5814 5813 5812
5815 5815 5815 5815 5815 5816 5816 5816 5816 5817 5817 5818 5820 5820 5821 5821 5822 5822 5822 5822 5822 5822 5822 5822 5821 5821 5821 5820 5819 5818 5818 5817 5816 5815 5814 5813 5812 5811 5810 5809 5809 5808 5807
5812 5812 5811 5812 5812 5812 5813 5813 5813 5814 5814 5815 5816 5817 5817 5818 5818 5818 5818 5818 5818 5817 5817 5817 5817 5816 5816 5815 5814 5813 5812 5811 5810 5810 5809 5808 5807 5806 5805 5804 5803 5803 5802
5809 5808 5809 5809 5809 5810 5810 5810 5810 5810 5811 5812 5812 5813 5814 5814 5814 5814 5814 5813 5813 5813 5813 5813 5812 5811 5811 5810 5809 5808 5807 5806 5805 5804 5804 5803 5802 5801 5800 5800 5799 5798 5797